Regional Weather Roundup
Issued by NWS

Home | Current Version | Previous Version | Graphics & Text | Print | Product List | Glossary On
Versions: 1 2 3 4 5 6 7 8 9 10 11 12 13 14 15 16 17 18 19 20 21 22 23 24 25 26 27 28 29 30 31 32 33 34 35 36 37 38 39 40 41 42 43 44 45 46 47 48 49 50
000
ASUS45 KTFX 200219
RWRMT
MONTANA HOURLY WEATHER ROUNDUP
NATIONAL WEATHER SERVICE GREAT FALLS MT
819 PM MDT SAT APR 19 2014

NOTE: "FAIR" INDICATES FEW OR NO CLOUDS BELOW 12000 FEET WITH NO
SIGNIFICANT WEATHER AND/OR OBSTRUCTIONS TO VISIBILITY.

* THESE STATIONS ARE NOT UNDER NWS QUALITY CONTROL. THEY DO NOT
   REPORT WEATHER SUCH AS PRECIPITATION OR FOG.

MTZ001>007-043-200300-
WEST OF THE DIVIDE
CITY           SKY/WX    TMP DP  RH WIND       PRES   REMARKS
KALISPELL      CLOUDY    61  23  23 W5        29.80S
MISSOULA       PTCLDY    63  25  24 N7        29.80S
BUTTE          CLEAR     55  18  23 NW6       29.87F
MULLAN PASS    LGT SNOW  37  25  62 SW13G25   29.92R VSB 3    WCI  29
* ESSEX        N/A       43  29  58 SW1        N/A
* LINCOLN      N/A       60  15  17 W4G12      N/A
* LOOKOUT PASS N/A       45  28  51 E13G22     N/A
* POLSON       N/A       57  25  29 W3G8       N/A
* SEELEY LAKE  N/A       62  17  17 SW5G11     N/A
* THOMP F APT  PTCLDY    57  17  21 S12G22     N/A
$$

MTZ008-052>055-200300-
SOUTHWEST MONTANA
CITY           SKY/WX    TMP DP  RH WIND       PRES   REMARKS
BOZEMAN        CLEAR     59  19  21 S13       29.85S
DILLON         MOCLDY    61  14  16 S12       29.84F
W YELLOWSTONE  N/A       47  20  34 SW4G11     N/A
* THREE FORKS  CLEAR     64  19  18 S17G24     N/A
* BOULDER HILL N/A       54  13  19 NW3G9      N/A
* MONIDA PASS  N/A       53  12  19 S16        N/A
* RAYNOLDS PAS N/A       44  25  47 S11        N/A
* WHITEHALL    N/A       68  15  13 W6G19      N/A
* WISE RIVER   N/A       57  15  19 NW10G18    N/A
$$

MTZ009>010-012-014-046-048-049-054-200300-
EAST SLOPES AND CENTRAL MONTANA
CITY           SKY/WX    TMP DP  RH WIND       PRES   REMARKS
CUT BANK       PTCLDY    54  21  27 W15       29.79F
GREAT FALLS    PTCLDY    57  18  22 CALM      29.79F
HELENA         CLEAR     59  19  21 NE3       29.79F
MALMSTROM AFB  PTCLDY    59  12  15 CALM      29.78F
* CONRAD       PTCLDY    63  16  16 N/A        N/A
* DEARBORN     N/A       63  18  17 SW2G7      N/A
* EAST GLACIER N/A       50  19  29 NW10G18    N/A
* MONARCH      N/A       54   6  14 W4         N/A
* PENDROY      N/A       56   8  14 W6G11      N/A
* ROGERS PASS  N/A       47  14  26 SE5        N/A
* SAINT MARY   N/A       52  18  26 SW6G12     N/A
* SWEET GRASS  N/A       54  17  23 SW6        N/A
* WHITE SULPH  N/A       57  15  19 SW3G12     N/A
$$

MTZ011-013-016-021-035-040-045-047-050-051-200300-
NORTH CENTRAL MONTANA
CITY           SKY/WX    TMP DP  RH WIND       PRES   REMARKS
HAVRE          MOCLDY    57  19  23 E6        29.79F
LEWISTOWN      PTCLDY    55  19  24 CALM      29.84F
* CHINOOK      MOCLDY    57  18  22 E5        29.80F
* FORT BENTON  PTCLDY    63  12  13 SW3       29.79F
* MALTA APT    PTCLDY    57  21  25 CALM      29.81F
* CHESTER      N/A       59  10  14 W2         N/A
* DENTON       N/A       58  13  17 E4         N/A
* GEYSER       N/A       59  16  18 S2         N/A
* JUDITH GAP   N/A       57  13  17 S4         N/A
* LOMA         N/A       63  11  13 SW4G9      N/A
$$

MTZ017>020-022>027-061-062-200300-
NORTHEAST MONTANA
CITY           SKY/WX    TMP DP  RH WIND       PRES   REMARKS
GLASGOW        PTCLDY    52  27  38 SE10      29.85F
GLENDIVE       CLEAR     52  21  30 S8        29.92S
JORDAN         PTCLDY    48  25  41 CALM      29.85F
SIDNEY         CLEAR     46  30  54 CALM      29.92S
WOLF POINT     PTCLDY    55  28  35 CALM      29.87F
* BEAVER HILL  N/A       53  21  29 S9         N/A
* CIRCLE       N/A       59  28  31 N/A        N/A
* LINDSAY DVD  N/A       52  20  28 S6         N/A
* NAVAJO       N/A       49  30  48 SW7        N/A
* SACO         N/A       58  25  28 S1         N/A
$$

MTZ028>042-056>058-200300-
SOUTHCENTRAL AND SOUTHEAST MONTANA
CITY           SKY/WX    TMP DP  RH WIND       PRES   REMARKS
BAKER          CLEAR     52  25  35 CALM      29.94F
BILLINGS       MOCLDY    61  25  25 SE9       29.87F
LIVINGSTON     CLEAR     59  19  21 SW16      29.85F
MILES CITY     CLEAR     57  23  27 SW3       29.90F
* LAUREL APT   PTCLDY    61  27  27 N/A        N/A
* ROUNDUP APT  MOCLDY    63  18  17 N/A        N/A
* HYSHAM       N/A       57  16  20 SE5        N/A
* LAME DEER    N/A       56  20  24 SE4        N/A
* REED POINT   N/A       61  30  31 NW1        N/A
* ROSCOE HILL  N/A       57   6  13 S8         N/A
$$

REGIONAL REPORTS...DAKOTAS
CITY           SKY/WX    TMP DP  RH WIND       PRES   REMARKS
WILLISTON      CLEAR     43  32  65 CALM      29.90F
DICKINSON      CLEAR     54  28  37 S3        29.93S
CROSBY         CLEAR     37  36  96 NE5       29.92S WCI  33
TIOGA          CLEAR     41  32  70 SW7       29.95S
WATFORD CITY   CLEAR     46  30  54 CALM      29.91S
BISMARCK       CLEAR     54  34  47 NE5       29.97R
GRAND FORKS    CLEAR     45  36  71 W7        29.97R
FARGO          CLEAR     54  39  57 N9        29.96R
BUFFALO SD     CLEAR     57  19  23 E6        29.90S
RAPID CITY     MOCLDY    52  30  43 SE9       29.98S
$$

REGIONAL REPORTS...WYOMING/IDAHO/WASHINGTON
CITY           SKY/WX    TMP DP  RH WIND       PRES   REMARKS
GILLETTE       PTCLDY    54  28  37 SE12      29.94F
SHERIDAN       CLEAR     59  30  33 E3        29.91F
CODY           PTCLDY    57  19  23 SW7       29.93R
YELLOWSTONE LA PTCLDY    43  16  34 VRB3      30.07F
SALMON         MOCLDY    64  16  15 SW9       29.84R
MULLAN PASS    LGT SNOW  37  25  62 SW13G25   29.92S VSB 3    WCI  29
SAND POINT     CLOUDY    54  30  40 SW12G22   29.88R
SPOKANE        CLOUDY    54  32  43 SW17G26   29.89S
$$

REGIONAL REPORTS...ALBERTA
CITY           SKY/WX    TMP DP  RH WIND       PRES   REMARKS
CALGARY        MOCLDY    50  25  38 SE10      29.67F
LETHBRIDGE     CLOUDY    52  28  40 SE9       29.74F
MEDICINE HAT   CLOUDY    54  25  33 NE6       29.75F
EDMONTON       MOCLDY    45  30  56 E9        29.69F
WATERTON GATE  N/A       50  19  29 SW8        N/A
CARDSTON       N/A       54  23  30 SW7        N/A
MILK RIVER     N/A       52  21  30 S5         N/A
$$

REGIONAL REPORTS...SASKATCHEWAN
CITY           SKY/WX    TMP DP  RH WIND       PRES   REMARKS
SWIFT CURRENT  CLEAR     39  32  76 E8        29.84S WCI  33
REGINA         PTCLDY    36  32  85 NW5       29.90F WCI  32
VAL MARIE      N/A       46  19  34 W7         N/A
ASSINIBOIA     N/A       39  32  76 NE8        N/A   WCI  33
CORONACH       N/A       46  36  68 E9         N/A

$$




USA.gov is the U.S. government's official web portal to all federal, state and local government web resources and services.